Waarnemingen

Advertentie
Mijn weer
Javea, Spanje (8370): temperatuur & dauwpunt: 09.10.2019 06:00:00 - 15.10.2019 06:00:00 (CEST)Javea, Spanje (8370): windsnelheid & windstoten: 09.10.2019 06:00:00 - 15.10.2019 06:00:00 (CEST)Javea, Spanje (8370): windrichting: 09.10.2019 06:00:00 - 15.10.2019 06:00:00 (CEST)Javea, Spanje (8370): luchtdruk: 09.10.2019 06:00:00 - 15.10.2019 06:00:00 (CEST)Javea, Spanje (8370): zicht: 09.10.2019 06:00:00 - 15.10.2019 06:00:00 (CEST)Javea, Spanje (8370): Zonneschijnduur: 09.10.2019 06:00:00 - 15.10.2019 06:00:00 (CEST)Javea, Spanje (8370): neerslag: 09.10.2019 06:00:00 - 15.10.2019 06:00:00 (CEST)
Datum & Tijd tt [°C] td [°C] ff [km/u] ff [kn] fx [km/u] fx [kn] dd ppp [hPa] vv [km] sd [min] rr [mm]
15.10.2019 06:00:00 17,2 5,5 16 9 46 25 WNW 1016,6 20 0 0,0
15.10.2019 05:00:00 17,9 5,5 18 10 38 20 WNW 1015,9 20 0 0,0
15.10.2019 04:00:00 18,3 5,5 11 6 39 21 WNW 1015,8 20 0 0,0
15.10.2019 03:00:00 19,0 6,1 21 12 35 19 W 1015,4 20 0 0,0
15.10.2019 02:00:00 19,5 7,6 16 9 47 26 WNW 1015,1 20 0 -
15.10.2019 01:00:00 21,1 8,4 22 12 37 20 WNW 1014,5 20 0 0,0
15.10.2019 00:00:00 19,4 14,6 9 5 24 13 W 1013,9 20 0 0,0
14.10.2019 23:00:00 20,9 18,5 9 5 16 9 ZW 1013,5 18 0 0,2
14.10.2019 22:00:00 21,8 18,4 5 3 24 13 ZW 1013,2 16 0 0,0
14.10.2019 21:00:00 21,9 18,5 9 5 22 12 WZW 1012,4 19 0 0,0
14.10.2019 20:00:00 21,9 18,3 9 5 18 10 ZZW 1011,8 17 7 -
14.10.2019 19:00:00 23,6 18,2 6 3 12 6 ZZO 1012,1 18 59 0,0
14.10.2019 18:00:00 25,0 17,9 4 2 12 6 OZO 1012,3 20 60 0,0
14.10.2019 17:00:00 24,2 19,3 3 2 19 11 N 1012,5 18 42 0,0
14.10.2019 16:00:00 21,5 20,1 7 4 26 14 NNO 1012,6 8 0 1,0
14.10.2019 15:00:00 21,5 18,7 12 7 32 17 NNW 1013,5 16 0 0,2
14.10.2019 14:00:00 22,4 19,0 14 7 32 17 N 1013,9 17 0 -
14.10.2019 13:00:00 23,7 18,8 18 10 29 16 N 1014,9 19 13 0,0
14.10.2019 12:00:00 24,4 20,7 8 5 16 9 NO 1014,0 14 47 0,8
14.10.2019 11:00:00 24,3 19,8 8 4 17 9 NO 1013,9 20 42 0,0
14.10.2019 10:00:00 20,5 19,5 7 4 12 7 WZW 1014,3 12 42 0,0
14.10.2019 09:00:00 17,8 17,0 9 5 13 7 WZW 1014,1 9 0 0,0
14.10.2019 08:00:00 17,8 17,0 8 5 11 6 WZW 1014,4 7 0 -
14.10.2019 07:00:00 18,3 17,5 8 5 13 7 WZW 1014,5 9 0 0,0
14.10.2019 06:00:00 17,8 16,8 6 3 10 5 ZW 1014,6 3,8 0 0,0
14.10.2019 05:00:00 19,1 18,1 6 4 10 6 W 1015,3 7 0 0,0
14.10.2019 04:00:00 19,7 18,5 8 5 11 6 W 1015,8 9 0 0,0
14.10.2019 03:00:00 21,0 19,8 9 5 15 8 NNW 1016,3 15 0 0,0
14.10.2019 02:00:00 19,3 18,2 1 1 8 5 ONO 1016,6 7 0 -
14.10.2019 01:00:00 19,7 18,4 3 2 6 3 W 1016,9 8 0 0,0
14.10.2019 00:00:00 20,1 18,8 1 1 8 4 WNW 1017,2 9 0 0,0
13.10.2019 23:00:00 20,3 18,8 6 3 8 4 WZW 1017,0 11 0 0,0
13.10.2019 22:00:00 20,4 18,5 5 3 7 4 W 1017,1 10 0 0,0
13.10.2019 21:00:00 21,6 18,8 3 1 5 3 ZW 1016,9 11 0 0,0
13.10.2019 20:00:00 23,3 19,4 1 1 10 5 OZO 1016,5 16 0 -
13.10.2019 19:00:00 24,4 19,1 5 3 14 8 ONO 1016,2 18 59 0,0
13.10.2019 18:00:00 25,7 19,1 7 4 16 9 ONO 1016,2 20 60 0,0
13.10.2019 17:00:00 25,3 19,0 9 5 19 10 NO 1016,4 15 60 0,0
13.10.2019 16:00:00 26,7 18,8 10 5 21 11 NNO 1016,4 18 60 0,0
13.10.2019 15:00:00 26,8 17,5 13 7 24 13 NNO 1016,8 20 60 0,0
13.10.2019 14:00:00 26,4 18,8 14 8 27 15 N 1017,6 20 60 -
13.10.2019 13:00:00 25,9 18,8 18 10 29 16 NNW 1018,0 16 60 0,0
13.10.2019 12:00:00 25,1 19,0 18 10 31 17 NNW 1017,8 16 60 0,0
13.10.2019 11:00:00 23,8 19,3 16 9 27 14 NNW 1017,7 16 60 0,0
13.10.2019 10:00:00 21,1 19,4 8 4 14 8 WZW 1017,4 16 60 0,0
13.10.2019 09:00:00 18,9 17,9 6 4 16 9 ZZW 1017,0 10 1 0,0
13.10.2019 08:00:00 18,3 17,3 8 5 14 8 WZW 1016,7 9 0 -
13.10.2019 07:00:00 18,3 17,3 8 4 15 8 WZW 1016,6 10 0 0,0
13.10.2019 06:00:00 18,2 17,2 6 3 13 7 WZW 1016,5 11 0 0,0
13.10.2019 05:00:00 18,9 17,8 8 4 15 8 W 1016,9 13 0 0,0
13.10.2019 04:00:00 18,6 17,5 8 5 13 7 WZW 1017,4 10 0 0,0
13.10.2019 03:00:00 19,1 17,9 6 4 13 7 W 1017,7 12 0 0,0
13.10.2019 02:00:00 19,3 18,2 8 5 12 6 ZW 1018,1 10 0 -
13.10.2019 01:00:00 20,0 18,8 6 4 14 8 WZW 1018,1 12 0 0,0
13.10.2019 00:00:00 20,1 18,6 6 3 11 6 ZW 1018,1 9 0 0,0
12.10.2019 23:00:00 21,5 19,3 6 4 11 6 W 1017,9 14 0 0,0
12.10.2019 22:00:00 22,7 19,8 5 3 13 7 N 1017,5 14 0 0,0
12.10.2019 21:00:00 22,9 19,8 4 2 13 7 NNO 1017,4 16 0 0,0
12.10.2019 20:00:00 23,2 19,8 7 4 17 9 N 1017,0 17 0 -
12.10.2019 19:00:00 23,8 19,7 9 5 19 10 NNO 1017,1 16 22 0,0
12.10.2019 18:00:00 24,6 19,8 11 6 22 12 N 1017,3 20 21 0,0
12.10.2019 17:00:00 25,2 19,6 13 7 21 11 NNO 1017,6 20 31 0,0
12.10.2019 16:00:00 25,9 19,3 11 6 26 14 NNO 1017,9 20 33 0,0
12.10.2019 15:00:00 25,5 19,1 15 8 23 12 N 1018,4 19 20 0,0
12.10.2019 14:00:00 24,4 19,5 11 6 22 12 NNO 1019,0 18 0 -
12.10.2019 13:00:00 25,1 19,7 11 6 20 11 NNO 1019,5 18 9 0,0
12.10.2019 12:00:00 24,6 19,0 11 6 20 11 N 1019,7 20 18 0,0
12.10.2019 11:00:00 23,3 19,3 8 4 14 8 N 1019,5 19 15 0,0
12.10.2019 10:00:00 20,6 18,2 6 3 13 7 WZW 1019,2 19 3 0,0
12.10.2019 09:00:00 19,5 17,3 7 4 14 8 WZW 1018,8 20 0 0,0
12.10.2019 08:00:00 19,0 17,1 6 3 14 7 ZW 1018,8 20 0 -
12.10.2019 07:00:00 18,6 16,4 6 4 13 7 ZW 1018,5 20 0 0,0
12.10.2019 06:00:00 18,3 16,6 8 4 12 7 ZW 1018,6 20 0 0,0
12.10.2019 05:00:00 18,3 16,3 8 5 13 7 ZW 1018,8 20 0 0,0
12.10.2019 04:00:00 18,3 17,1 8 4 12 6 WZW 1019,2 19 0 0,0
12.10.2019 03:00:00 18,3 17,1 9 5 11 6 WZW 1019,9 16 0 0,0
12.10.2019 02:00:00 18,2 17,1 9 5 10 6 WZW 1020,1 16 0 -
12.10.2019 01:00:00 18,6 17,3 6 4 10 6 ZW 1020,5 15 0 0,0
12.10.2019 00:00:00 18,8 17,1 4 2 8 4 W 1020,4 17 0 0,0
11.10.2019 23:00:00 19,5 17,3 3 2 8 4 W 1020,4 18 0 0,0
11.10.2019 22:00:00 20,1 17,1 1 1 6 3 WNW 1019,9 18 0 0,0
11.10.2019 21:00:00 21,0 17,4 4 2 9 5 ZW 1019,8 20 0 0,0
11.10.2019 20:00:00 22,6 17,5 4 2 12 7 ZZO 1019,7 20 0 -
11.10.2019 19:00:00 23,8 17,3 6 4 20 11 ZO 1019,6 20 27 0,0
11.10.2019 18:00:00 25,8 17,5 10 5 19 11 OZO 1019,8 20 48 0,0
11.10.2019 17:00:00 24,8 17,3 10 5 21 11 O 1020,2 20 14 0,0
11.10.2019 16:00:00 24,9 17,4 11 6 21 11 O 1020,5 19 19 0,0
11.10.2019 15:00:00 26,0 17,4 10 5 18 10 O 1021,1 20 55 0,0
11.10.2019 14:00:00 25,9 17,8 6 3 16 9 NO 1022,1 18 60 -
11.10.2019 13:00:00 26,1 17,2 8 4 16 9 ONO 1022,6 20 60 0,0
11.10.2019 12:00:00 26,0 17,6 8 4 15 8 ONO 1023,0 20 60 0,0
11.10.2019 11:00:00 25,0 18,9 3 2 8 4 O 1023,0 20 53 0,0
11.10.2019 10:00:00 20,3 18,1 6 4 9 5 WZW 1022,7 20 19 0,0
11.10.2019 09:00:00 18,0 16,8 8 4 11 6 WZW 1022,0 20 0 0,0
11.10.2019 08:00:00 17,1 16,1 8 4 11 6 WZW 1021,7 20 0 -
11.10.2019 07:00:00 16,7 15,5 9 5 11 6 WZW 1021,9 20 0 0,0
11.10.2019 06:00:00 16,7 15,5 7 4 11 6 ZW 1021,8 20 0 0,0
11.10.2019 05:00:00 17,2 15,9 7 4 11 6 ZW 1021,9 20 0 0,0
11.10.2019 04:00:00 17,1 15,8 7 4 11 6 WZW 1022,1 20 0 0,0
11.10.2019 03:00:00 17,5 16,0 8 4 10 5 WZW 1022,4 20 0 0,0
11.10.2019 02:00:00 18,2 16,7 6 3 9 5 WZW 1022,5 20 0 -
11.10.2019 01:00:00 18,9 17,1 5 3 8 4 W 1022,6 20 0 0,0
11.10.2019 00:00:00 19,6 17,0 5 3 7 4 ZW 1022,7 20 0 0,0
10.10.2019 23:00:00 20,9 17,7 4 2 7 4 WZW 1022,6 20 0 0,0
10.10.2019 22:00:00 20,7 17,7 6 3 7 4 WZW 1022,3 20 0 0,0
10.10.2019 21:00:00 20,9 17,1 4 2 6 4 ZW 1021,8 20 0 0,0
10.10.2019 20:00:00 22,8 16,8 3 2 11 6 ONO 1021,4 20 0 -
10.10.2019 19:00:00 24,3 17,1 6 4 14 7 O 1021,1 20 60 0,0
10.10.2019 18:00:00 25,6 17,2 7 4 16 9 O 1020,9 20 60 0,0
10.10.2019 17:00:00 25,7 17,1 9 5 17 9 ONO 1021,1 20 60 0,0
10.10.2019 16:00:00 26,2 16,7 9 5 17 9 ONO 1021,3 20 60 0,0
10.10.2019 15:00:00 26,0 16,2 9 5 18 10 ONO 1021,4 20 60 0,0
10.10.2019 14:00:00 - - - - - - - - - - -
10.10.2019 13:00:00 26,1 16,0 8 5 14 7 ONO 1022,3 20 60 0,0
10.10.2019 12:00:00 26,4 16,6 6 3 13 7 O 1022,4 20 60 0,0
10.10.2019 11:00:00 24,9 17,9 3 2 11 6 ZO 1022,3 20 60 0,0
10.10.2019 10:00:00 20,7 17,5 7 4 13 7 W 1021,9 20 54 0,0
10.10.2019 09:00:00 17,1 16,1 7 4 10 5 WZW 1021,1 15 0 0,0
10.10.2019 08:00:00 16,6 15,6 8 4 11 6 WZW 1020,5 15 0 -
10.10.2019 07:00:00 16,6 15,6 8 4 11 6 ZW 1020,1 13 0 0,0
10.10.2019 06:00:00 16,8 15,8 7 4 10 5 WZW 1020,1 16 0 0,0
10.10.2019 05:00:00 17,2 16,0 7 4 10 5 WZW 1020,1 15 0 0,0
10.10.2019 04:00:00 17,7 16,4 7 4 9 5 WZW 1020,1 17 0 0,0
10.10.2019 03:00:00 18,0 16,8 8 4 9 5 WZW 1020,3 20 0 0,0
10.10.2019 02:00:00 17,9 16,2 4 2 8 4 WZW 1020,2 20 0 -
10.10.2019 01:00:00 18,5 16,6 3 2 5 3 WZW 1019,9 20 0 0,0
10.10.2019 00:00:00 19,0 16,8 5 3 7 4 W 1019,6 20 0 0,0
09.10.2019 23:00:00 19,6 17,0 4 2 6 4 W 1019,2 20 0 0,0
09.10.2019 22:00:00 19,8 16,5 2 1 8 4 WZW 1018,7 20 0 0,0
09.10.2019 21:00:00 21,1 16,5 6 3 10 6 ZZW 1017,9 20 0 0,0
09.10.2019 20:00:00 22,4 16,4 8 4 21 11 ZZW 1017,2 20 3 -
09.10.2019 19:00:00 24,3 16,6 12 7 21 11 Z 1016,5 20 60 0,0
09.10.2019 18:00:00 26,4 16,0 10 6 27 14 ZZW 1016,2 20 60 0,0
09.10.2019 17:00:00 26,4 16,0 13 7 26 14 ZZW 1016,3 20 60 0,0
09.10.2019 16:00:00 26,7 16,0 14 7 26 14 ZZW 1016,2 20 60 0,0
09.10.2019 15:00:00 27,2 16,8 14 7 26 14 ZZW 1016,4 20 60 0,0
09.10.2019 14:00:00 27,3 16,6 10 5 23 12 ZZW 1017,4 20 60 -
09.10.2019 13:00:00 26,8 15,8 10 6 23 13 ZZW 1017,6 20 60 0,0
09.10.2019 12:00:00 25,5 15,8 13 7 30 16 ZZW 1017,8 20 60 0,0
09.10.2019 11:00:00 24,3 16,0 11 6 24 13 ZZW 1017,7 20 60 0,0
09.10.2019 10:00:00 22,6 16,8 8 4 16 8 ZZW 1017,7 20 60 0,0
09.10.2019 09:00:00 19,3 16,3 5 3 10 5 WZW 1017,0 20 1 0,0
09.10.2019 08:00:00 18,9 15,8 5 3 13 7 W 1016,8 20 0 -
09.10.2019 07:00:00 19,2 16,2 5 3 12 7 ZW 1016,8 20 0 0,0
09.10.2019 06:00:00 19,0 15,7 4 2 10 6 W 1016,7 20 0 0,0

tt = temperatuur
td = dauwpunt
ff = windsnelheid
fx = windstoten
dd = windrichting
ppp = luchtdruk
vv = zicht
sd = Zonneschijnduur
rr = neerslag

Weerstations in de omgeving